GW7365 Weather Reports


time (UTC)temp
C
wind
direction
speed
KPH
gust
KPH
rain 1hr
cm
rain 24hr
cm
rain mn
cm
humidity
%
barometer
mb
20260506013801 10 358 19.3 27.4 0.00 0.10 0.00 86 1008.0
20260506013304 10 7 19.3 27.4 0.00 0.10 0.00 87 1007.9
20260506012803 10 359 17.7 24.1 0.00 0.10 0.00 87 1008.0
20260506012301 10 351 16.1 22.5 0.00 0.10 0.00 87 1008.1
20260506011800 9 2 14.5 22.5 0.00 0.10 0.00 87 1008.2
20260506011301 9 358 14.5 22.5 0.00 0.10 0.00 87 1008.2
20260506010757 9 358 12.9 20.9 0.00 0.10 0.00 88 1008.2
20260506010257 9 311 12.9 17.7 0.00 0.10 0.00 87 1008.2
20260506005757 9 29 12.9 17.7 0.00 0.10 0.00 87 1008.3
20260506005258 9 349 12.9 19.3 0.00 0.10 0.00 87 1008.4
20260506004757 9 1 12.9 19.3 0.00 0.10 0.00 87 1008.4
20260506004256 9 14 12.9 17.7 0.00 0.10 0.00 89 1008.5
20260506003756 8 6 12.9 17.7 0.00 0.10 0.00 89 1008.5
20260506003255 8 359 12.9 17.7 0.00 0.10 0.00 89 1008.6
20260506002755 8 339 12.9 17.7 0.00 0.10 0.00 89 1008.6
20260506002252 8 8 11.3 17.7 0.00 0.10 0.00 90 1008.6
20260506001749 8 358 9.7 14.5 0.00 0.10 0.00 90 1008.7
20260506001249 8 337 9.7 14.5 0.00 0.10 0.00 90 1008.7
20260506000745 8 335 9.7 14.5 0.00 0.10 0.00 90 1008.8
20260506000247 8 333 11.3 14.5 0.00 0.10 0.00 89 1008.7
20260505235745 8 341 11.3 16.1 0.00 0.10 0.00 89 1008.8
20260505235515 8 349 11.3 16.1 0.00 0.10 0.00 88 1008.9
20260505234745 8 328 9.7 14.5 0.00 0.10 0.00 87 1008.9
20260505234246 8 324 9.7 14.5 0.00 0.10 0.00 87 1008.9
20260505233746 8 331 9.7 14.5 0.00 0.10 0.00 87 1008.9
20260505233515 8 323 9.7 14.5 0.00 0.10 0.00 87 1009.0
20260505232746 8 327 11.3 16.1 0.00 0.10 0.00 87 1009.1
20260505232514 8 340 12.9 19.3 0.00 0.10 0.00 87 1009.1
20260505231746 8 358 14.5 19.3 0.00 0.10 0.00 86 1009.2
20260505231246 8 8 14.5 19.3 0.00 0.10 0.00 85 1009.1
20260505230746 8 11 14.5 20.9 0.00 0.10 0.00 84 1009.2
20260505230247 8 10 14.5 20.9 0.00 0.10 0.00 84 1009.2
20260505230021 8 20 14.5 20.9 0.00 0.10 0.00 84 1009.3
20260505225244 8 10 14.5 20.9 0.00 0.10 0.00 83 1009.3
20260505224743 8 18 14.5 17.7 0.00 0.10 0.00 83 1009.2
20260505224243 8 12 12.9 16.1 0.00 0.10 0.00 84 1009.3
20260505223744 8 19 12.9 16.1 0.00 0.10 0.00 84 1009.3
20260505223244 8 16 11.3 16.1 0.00 0.10 0.00 84 1009.4
20260505222743 8 18 11.3 14.5 0.00 0.10 0.00 84 1009.4
20260505222244 8 15 11.3 16.1 0.00 0.10 0.00 85 1009.5
20260505221744 8 26 12.9 16.1 0.00 0.10 0.00 83 1009.4
20260505221510 8 20 12.9 17.7 0.00 0.10 0.00 82 1009.5
20260505220741 8 17 12.9 17.7 0.00 0.10 0.00 82 1009.5
20260505220251 9 13 16.1 20.9 0.00 0.10 0.10 81 1009.5
20260505220247 8 11 14.5 20.9 0.00 0.10 0.00 82 1009.5
20260505215238 9 13 17.7 22.5 0.00 0.10 0.10 80 1009.4
20260505214736 9 4 17.7 24.1 0.00 0.10 0.10 80 1009.4
20260505214235 9 12 17.7 24.1 0.00 0.10 0.10 78 1009.5
20260505213736 9 1 16.1 25.7 0.00 0.10 0.10 79 1009.5
20260505213236 10 9 16.1 25.7 0.00 0.10 0.10 78 1009.5
20260505212735 10 4 17.7 25.7 0.00 0.10 0.10 77 1009.5
20260505212502 10 11 17.7 25.7 0.00 0.10 0.10 78 1009.5
20260505212006 10 3 19.3 25.7 0.00 0.10 0.10 77 1009.5
20260505211236 10 0 19.3 25.7 0.00 0.10 0.10 77 1009.4
20260505210736 10 358 19.3 25.7 0.00 0.10 0.10 78 1009.5
20260505210238 10 9 19.3 25.7 0.00 0.10 0.10 78 1009.5
20260505205746 10 10 20.9 29.0 0.00 0.10 0.10 78 1009.7
20260505205740 10 3 19.3 24.1 0.00 0.10 0.10 78 1009.6
20260505204736 10 2 20.9 29.0 0.00 0.10 0.10 78 1009.7
20260505204233 10 11 20.9 30.6 0.00 0.10 0.10 78 1009.6
20260505203733 10 11 20.9 32.2 0.00 0.10 0.10 78 1009.7
20260505203234 10 22 20.9 32.2 0.00 0.10 0.10 78 1009.7
20260505202733 10 11 17.7 25.7 0.00 0.10 0.10 78 1009.6
20260505202512 10 359 19.3 27.4 0.00 0.10 0.10 80 1009.7
20260505201733 10 5 19.3 27.4 0.00 0.10 0.10 79 1009.7
20260505201512 10 5 20.9 27.4 0.00 0.10 0.10 79 1009.7
20260505200747 10 2 20.9 27.4 0.00 0.10 0.10 79 1009.7
20260505200742 10 7 20.9 27.4 0.00 0.10 0.10 79 1009.6
20260505195732 10 8 20.9 29.0 0.00 0.10 0.10 79 1009.6
20260505195512 10 7 20.9 29.0 0.00 0.10 0.10 79 1009.6
20260505194731 10 8 22.5 32.2 0.00 0.10 0.10 79 1009.5
20260505194228 10 10 24.1 32.2 0.00 0.10 0.10 79 1009.4
20260505193726 10 6 24.1 32.2 0.00 0.10 0.10 79 1009.3
20260505193222 10 3 22.5 30.6 0.00 0.10 0.10 78 1009.5
20260505192723 10 359 24.1 37.0 0.00 0.10 0.10 79 1009.4
20260505192222 10 0 27.4 40.2 0.00 0.10 0.10 78 1009.3
20260505191958 10 8 29.0 40.2 0.00 0.10 0.10 78 1009.2
20260505191223 11 10 27.4 40.2 0.03 0.10 0.10 78 1009.0
20260505190723 11 11 27.4 41.8 0.03 0.10 0.10 78 1008.9
20260505190514 11 11 27.4 41.8 0.03 0.10 0.10 78 1009.0
20260505185723 11 6 27.4 38.6 0.00 0.08 0.08 77 1009.0
20260505185222 11 13 25.7 33.8 0.00 0.08 0.08 77 1008.8
20260505184723 11 7 24.1 33.8 0.00 0.08 0.08 77 1008.9
20260505184223 11 12 25.7 37.0 0.00 0.08 0.08 77 1008.7
20260505183721 11 4 27.4 37.0 0.03 0.08 0.08 76 1008.8
20260505183218 11 10 25.7 35.4 0.03 0.08 0.08 76 1008.8
20260505182717 11 0 27.4 38.6 0.03 0.08 0.08 77 1008.7
20260505182217 11 5 27.4 38.6 0.03 0.08 0.08 76 1008.8
20260505181718 11 10 25.7 35.4 0.03 0.08 0.08 77 1008.9
20260505181218 11 11 24.1 35.4 0.03 0.08 0.08 76 1008.7
20260505180718 11 4 25.7 41.8 0.03 0.08 0.08 76 1008.9
20260505180218 12 14 29.0 43.5 0.03 0.08 0.08 74 1008.9
20260505175718 12 7 27.4 43.5 0.03 0.08 0.08 74 1008.6
20260505175216 12 10 27.4 45.1 0.03 0.08 0.08 74 1008.5
20260505174715 12 7 32.2 46.7 0.05 0.08 0.08 74 1008.7
20260505174215 12 11 30.6 46.7 0.05 0.08 0.08 73 1008.4
20260505173715 12 10 25.7 40.2 0.05 0.05 0.05 73 1008.6
20260505173215 12 4 24.1 37.0 0.03 0.05 0.05 72 1008.3
20260505172714 12 307 22.5 37.0 0.03 0.05 0.05 74 1008.7
20260505172212 12 9 22.5 37.0 0.03 0.05 0.05 72 1008.8
20260505171712 12 356 22.5 37.0 0.05 0.05 0.05 71 1008.8
20260505171213 12 4 24.1 38.6 0.05 0.05 0.05 72 1008.8
20260505170712 12 9 25.7 38.6 0.05 0.05 0.05 71 1008.9
20260505170213 12 14 24.1 37.0 0.03 0.05 0.05 71 1008.9
20260505165713 12 1 25.7 43.5 0.03 0.05 0.05 70 1009.0
20260505165213 12 356 27.4 43.5 0.03 0.05 0.05 70 1008.9
20260505164712 12 5 25.7 37.0 0.03 0.03 0.03 70 1009.0
20260505164513 13 358 22.5 33.8 0.00 0.03 0.03 70 1008.8
20260505164215 13 1 22.5 33.8 0.03 0.03 0.03 71 1009.0
20260505163447 13 9 24.1 41.8 0.00 0.03 0.03 71 1008.9
20260505162712 12 4 27.4 41.8 0.03 0.03 0.03 71 1009.0
20260505162448 12 347 24.1 41.8 0.03 0.03 0.00 71 1008.7
20260505161946 12 359 20.9 33.8 0.00 0.00 0.00 71 1008.9
20260505161212 13 347 22.5 37.0 0.00 0.00 0.00 72 1009.1
20260505160713 13 2 24.1 37.0 0.00 0.00 0.00 71 1009.1
20260505160213 13 12 22.5 32.2 0.00 0.00 0.00 73 1009.0
20260505153211 13 6 19.3 30.6 0.00 0.00 0.00 72 1008.9
20260505152715 13 351 19.3 29.0 0.00 0.00 0.00 73 1009.0
20260505152709 13 346 19.3 29.0 0.00 0.00 0.00 72 1009.1
20260505151709 13 1 19.3 29.0 0.00 0.00 0.00 74 1009.0
20260505151209 13 3 20.9 30.6 0.00 0.00 0.00 72 1009.2
20260505150710 13 4 22.5 30.6 0.00 0.00 0.00 72 1009.2
20260505150209 13 14 20.9 30.6 0.00 0.00 0.00 73 1009.3
20260505140445 13 2 19.3 30.6 0.00 0.00 0.00 74 1009.4
20260505130204 13 356 6.4 19.3 0.00 0.00 0.00 76 1010.1
20260505124702 12 46 12.9 22.5 0.00 0.00 0.00 78 1010.1
20260505124201 12 10 12.9 22.5 0.00 0.00 0.00 78 1010.1
20260505123701 12 31 12.9 22.5 0.00 0.00 0.00 77 1010.1
20260505123202 12 24 12.9 22.5 0.00 0.00 0.00 78 1010.1
20260505122944 12 57 12.9 22.5 0.00 0.00 0.00 80 1010.2
20260505122203 12 34 14.5 22.5 0.00 0.00 0.00 80 1010.1
20260505121702 12 25 14.5 22.5 0.00 0.00 0.00 79 1010.1
20260505121159 12 29 14.5 29.0 0.00 0.00 0.00 78 1010.2
20260505120656 12 44 17.7 29.0 0.00 0.00 0.00 81 1010.1
20260505120156 12 37 14.5 29.0 0.00 0.00 0.00 80 1010.1
20260505115656 12 38 12.9 22.5 0.00 0.00 0.00 79 1010.3
20260505115156 11 41 14.5 22.5 0.00 0.00 0.00 82 1010.3
20260505114656 11 22 14.5 24.1 0.00 0.00 0.00 80 1010.3
20260505114156 11 28 17.7 27.4 0.00 0.00 0.00 82 1010.2
20260505113657 11 359 17.7 27.4 0.00 0.00 0.00 80 1010.3
20260505113157 11 6 17.7 27.4 0.00 0.00 0.00 83 1010.2
20260505112656 11 28 19.3 29.0 0.00 0.00 0.00 86 1010.3
20260505112158 11 15 19.3 29.0 0.00 0.00 0.00 85 1010.4
20260505111657 11 4 17.7 25.7 0.00 0.00 0.00 86 1010.4
20260505111157 11 13 19.3 27.4 0.00 0.00 0.00 86 1010.5
20260505110928 11 10 20.9 27.4 0.00 0.00 0.00 86 1010.6
20260505110157 11 14 17.7 25.7 0.00 0.00 0.00 86 1010.6
20260505102155 10 1 22.5 30.6 0.00 0.00 0.00 89 1010.8
20260505101937 10 13 24.1 30.6 0.00 0.00 0.00 90 1010.7
20260505101154 10 5 22.5 30.6 0.00 0.00 0.00 89 1010.6
20260505100925 10 9 20.9 30.6 0.00 0.00 0.00 90 1010.7
20260505100153 10 17 19.3 25.7 0.00 0.00 0.00 92 1010.7
20260505095650 10 9 19.3 25.7 0.00 0.00 0.00 90 1010.8
20260505095149 10 4 19.3 25.7 0.00 0.00 0.00 92 1010.8
20260505094650 10 9 20.9 27.4 0.00 0.00 0.00 91 1010.9
20260505094150 10 29 20.9 29.0 0.00 0.00 0.00 92 1011.0
20260505093650 10 13 22.5 30.6 0.00 0.00 0.00 91 1010.9
20260505093149 10 22 20.9 30.6 0.00 0.00 0.00 91 1010.9
20260505092649 10 24 20.9 27.4 0.00 0.00 0.00 90 1011.0
20260505092151 10 15 19.3 30.6 0.00 0.00 0.00 91 1011.0
20260505091650 10 19 19.3 30.6 0.00 0.00 0.00 92 1011.1
20260505091150 10 29 19.3 30.6 0.00 0.00 0.00 91 1011.0
20260505090650 10 26 17.7 24.1 0.00 0.00 0.00 92 1011.0
20260505090150 10 20 16.1 20.9 0.00 0.00 0.00 92 1011.0
20260505085647 10 14 16.1 24.1 0.00 0.00 0.00 91 1011.0
20260505085147 10 23 16.1 24.1 0.00 0.00 0.00 92 1010.9
20260505084647 10 18 19.3 29.0 0.00 0.00 0.00 92 1010.9
20260505084147 10 26 20.9 29.0 0.00 0.00 0.00 92 1010.8
20260505083644 10 14 20.9 29.0 0.00 0.00 0.00 92 1010.7
20260505083145 10 15 19.3 29.0 0.00 0.00 0.00 92 1010.8
20260505082645 10 26 24.1 37.0 0.00 0.00 0.00 91 1010.8
20260505082148 10 25 25.7 37.0 0.00 0.00 0.00 92 1010.9
20260505081645 9 11 20.9 35.4 0.00 0.00 0.00 92 1010.7
20260505081145 10 31 20.9 30.6 0.00 0.00 0.00 94 1010.9
20260505080645 10 28 22.5 32.2 0.00 0.00 0.00 93 1010.7
20260505080144 10 24 20.9 32.2 0.00 0.00 0.00 94 1010.9
20260505075644 10 31 19.3 29.0 0.00 0.00 0.00 93 1010.9
20260505075416 9 26 19.3 32.2 0.00 0.00 0.00 94 1010.9
20260505074639 9 26 20.9 32.2 0.00 0.00 0.00 94 1010.9
20260505074139 9 34 22.5 32.2 0.00 0.00 0.00 95 1010.7
20260505073928 9 18 24.1 33.8 0.00 0.00 0.00 95 1010.8
20260505073136 9 23 25.7 33.8 0.00 0.00 0.00 95 1010.9
20260505072637 9 18 22.5 32.2 0.00 0.00 0.00 96 1010.9
20260505072146 9 14 29.0 37.0 0.00 0.00 0.00 96 1010.9
20260505072140 9 21 25.7 37.0 0.00 0.00 0.00 96 1010.9
20260505071137 9 21 27.4 37.0 0.00 0.00 0.00 96 1010.8
20260505070637 9 16 25.7 37.0 0.00 0.00 0.00 96 1010.9
20260505070137 9 17 24.1 32.2 0.00 0.00 0.00 96 1010.8
20260505065637 9 17 24.1 35.4 0.00 0.00 0.00 97 1010.9
20260505065136 9 16 22.5 35.4 0.00 0.00 0.00 97 1011.0
20260505064637 9 4 17.7 32.2 0.00 0.00 0.00 97 1011.0
20260505064137 9 29 17.7 30.6 0.00 0.00 0.00 98 1011.1
20260505063635 9 15 20.9 30.6 0.00 0.00 0.00 98 1011.2
20260505063132 9 32 20.9 27.4 0.00 0.00 0.00 98 1011.2
20260505062631 9 25 20.9 29.0 0.00 0.00 0.00 98 1011.2
20260505062131 9 29 20.9 29.0 0.00 0.00 0.00 98 1011.2
20260505061631 9 25 16.1 29.0 0.00 0.00 0.00 98 1011.2
20260505061132 9 37 14.5 24.1 0.00 0.00 0.00 99 1011.4
20260505060631 9 34 17.7 24.1 0.00 0.00 0.00 99 1011.5
20260505060417 9 28 19.3 24.1 0.00 0.00 0.00 98 1011.4
20260505055631 9 12 19.3 25.7 0.00 0.00 0.00 99 1011.3
20260505055131 9 24 20.9 29.0 0.00 0.00 0.00 99 1011.3
20260505054631 9 13 20.9 29.0 0.00 0.00 0.00 98 1011.4
20260505054132 9 31 19.3 30.6 0.00 0.00 0.00 98 1011.4
20260505053905 9 20 19.3 30.6 0.00 0.00 0.00 99 1011.5
20260505053147 9 18 19.3 27.4 0.00 0.00 0.00 99 1011.1
20260505053142 9 23 17.7 27.4 0.00 0.00 0.00 98 1011.2
20260505052131 9 8 17.7 25.7 0.00 0.00 0.00 98 1011.0
20260505051902 9 14 19.3 27.4 0.00 0.00 0.00 99 1011.1
20260505051407 9 16 20.9 30.6 0.00 0.00 0.00 98 1010.9
20260505050631 9 12 19.3 30.6 0.00 0.00 0.00 98 1010.9
20260505050131 9 18 19.3 32.2 0.00 0.00 0.00 99 1011.0
20260505041128 9 16 20.9 29.0 0.00 0.00 0.00 97 1010.9
20260505040629 9 13 17.7 24.1 0.00 0.00 0.00 97 1010.9
20260505040129 10 20 17.7 24.1 0.00 0.00 0.00 97 1011.0
20260505035629 10 2 19.3 25.7 0.00 0.00 0.00 96 1010.9
20260505035129 10 12 19.3 25.7 0.00 0.00 0.00 96 1010.8
20260505034914 10 11 19.3 25.7 0.00 0.00 0.00 97 1010.9
20260505034129 10 7 17.7 24.1 0.00 0.00 0.00 97 1010.9
20260505033628 10 14 19.3 29.0 0.00 0.00 0.00 97 1011.0
20260505033404 10 350 20.9 29.0 0.00 0.00 0.00 97 1011.0
20260505032629 10 12 22.5 32.2 0.00 0.00 0.00 97 1011.1
20260505032129 10 5 22.5 32.2 0.00 0.00 0.00 96 1011.2
20260505031629 10 2 20.9 30.6 0.00 0.00 0.00 97 1010.9
20260505031129 10 1 17.7 25.7 0.00 0.00 0.00 96 1010.9
20260505030627 10 357 17.7 27.4 0.00 0.00 0.00 96 1011.0
20260505030133 10 3 17.7 27.4 0.00 0.00 0.00 96 1010.9
20260505025632 10 10 19.3 25.7 0.00 0.00 0.00 95 1010.9
20260505025128 10 7 17.7 24.1 0.00 0.00 0.00 95 1011.0
20260505024627 10 11 17.7 24.1 0.00 0.00 0.00 95 1011.1
20260505024407 10 0 17.7 27.4 0.00 0.00 0.00 95 1011.1
20260505023624 10 6 17.7 27.4 0.00 0.00 0.00 95 1011.1
20260505023356 10 8 19.3 25.7 0.00 0.00 0.00 95 1011.2
20260505022625 10 7 19.3 27.4 0.00 0.00 0.00 94 1011.2
20260505022355 10 3 20.9 29.0 0.00 0.00 0.00 94 1011.2
20260505021621 10 9 20.9 33.8 0.00 0.00 0.00 94 1011.2
20260505021122 10 1 22.5 33.8 0.00 0.00 0.00 94 1011.0
20260505020852 10 4 22.5 33.8 0.00 0.00 0.00 94 1011.0
20260505020119 10 354 20.9 30.6 0.00 0.00 0.00 94 1011.1
20260505015619 10 359 20.9 29.0 0.00 0.00 0.00 94 1010.9
20260505015119 10 13 19.3 27.4 0.00 0.00 0.00 95 1011.1
20260505014619 10 359 20.9 30.6 0.00 0.00 0.00 95 1011.3
20260505014119 10 3 22.5 32.2 0.00 0.00 0.00 94 1011.2